When you browse on this site, cookies collect data to enhance your experience and personalize the content and advertising you see.
Visit our Privacy Policy to learn more. By continuing to use the site, you agree to this use of cookies and data.
  • In Hungary
  • List of Countries
  • For 7 days
  • Water Temperature
  • Weather Map
  • News
  • Weather Widgets
  • user-avatar
    Login

    Hourly Weather Daraganov

    Today, 16 October, Wednesday

    Time Temperature Precipitation Wind Pressure Humidity
    00:00 +16°C° 0 mm 1 mps 764 mmHg 54%
    01:00 +16°C° 0 mm 1 mps 764 mmHg 57%
    02:00 +16°C° 0 mm 1 mps 764 mmHg 60%
    03:00 +15°C° 0 mm 1 mps 765 mmHg 64%
    04:00 +15°C° 0 mm 1 mps 765 mmHg 66%
    05:00 +14°C° 0 mm 1 mps 765 mmHg 67%
    06:00 +14°C° 0 mm 1 mps 764 mmHg 69%
    07:00 +15°C° 0 mm 2 mps 765 mmHg 66%
    08:00 +16°C° 0 mm 2 mps 765 mmHg 63%
    09:00 +17°C° 0 mm 3 mps 765 mmHg 60%
    10:00 +19°C° 0 mm 3 mps 765 mmHg 55%
    11:00 +21°C° 0 mm 3 mps 765 mmHg 49%
    12:00 +22°C° 0 mm 3 mps 765 mmHg 44%
    13:00 +24°C° 0 mm 3 mps 765 mmHg 43%
    14:00 +24°C° 0 mm 3 mps 765 mmHg 42%
    15:00 +25°C° 0 mm 3 mps 765 mmHg 43%
    16:00 +22°C° 0 mm 3 mps 765 mmHg 48%
    17:00 +21°C° 0 mm 3 mps 765 mmHg 53%
    18:00 +20°C° 0 mm 3 mps 765 mmHg 59%
    19:00 +19°C° 0 mm 3 mps 765 mmHg 62%
    20:00 +18°C° 0 mm 4 mps 765 mmHg 65%
    21:00 +18°C° 0 mm 4 mps 765 mmHg 69%
    22:00 +17°C° 0 mm 4 mps 765 mmHg 71%
    23:00 +17°C° 0 mm 4 mps 765 mmHg 73%

    Tomorrow, 17 October, Thursday

    Time Temperature Precipitation Wind Pressure Humidity
    00:00 +15°C° 0 mm 4 mps 765 mmHg 76%
    01:00 +15°C° 0 mm 4 mps 765 mmHg 78%
    02:00 +14°C° 0 mm 4 mps 765 mmHg 81%
    03:00 +14°C° 0 mm 4 mps 765 mmHg 83%
    04:00 +13°C° 0 mm 4 mps 765 mmHg 85%
    05:00 +13°C° 0 mm 4 mps 765 mmHg 87%
    06:00 +12°C° 0 mm 4 mps 765 mmHg 89%
    07:00 +13°C° 0 mm 4 mps 765 mmHg 84%
    08:00 +14°C° 0 mm 5 mps 765 mmHg 80%
    09:00 +15°C° 0 mm 5 mps 765 mmHg 75%
    10:00 +16°C° 0 mm 5 mps 765 mmHg 68%
    11:00 +19°C° 0 mm 5 mps 765 mmHg 60%
    12:00 +21°C° 0 mm 5 mps 765 mmHg 52%
    13:00 +21°C° 0 mm 5 mps 764 mmHg 50%
    14:00 +22°C° 0 mm 5 mps 764 mmHg 47%
    15:00 +23°C° 0 mm 5 mps 764 mmHg 45%
    16:00 +21°C° 0 mm 4 mps 763 mmHg 48%
    17:00 +20°C° 0 mm 4 mps 763 mmHg 52%
    18:00 +19°C° 0 mm 3 mps 763 mmHg 56%
    19:00 +18°C° 0 mm 3 mps 763 mmHg 58%
    20:00 +18°C° 0 mm 3 mps 763 mmHg 60%
    21:00 +17°C° 0 mm 4 mps 763 mmHg 62%
    22:00 +16°C° 0 mm 3 mps 763 mmHg 65%
    23:00 +16°C° 0 mm 3 mps 763 mmHg 68%

    Day after tomorrow, 18 October, Friday

    Time Temperature Precipitation Wind Pressure Humidity
    00:00 +14°C° 0 mm 3 mps 763 mmHg 71%
    01:00 +14°C° 0 mm 3 mps 763 mmHg 74%
    02:00 +13°C° 0 mm 3 mps 763 mmHg 77%
    03:00 +13°C° 0 mm 3 mps 763 mmHg 80%
    04:00 +12°C° 0 mm 3 mps 762 mmHg 82%
    05:00 +12°C° 0 mm 3 mps 762 mmHg 84%
    06:00 +13°C° 0 mm 2 mps 762 mmHg 86%
    07:00 +13°C° 0 mm 3 mps 763 mmHg 81%
    08:00 +14°C° 0 mm 3 mps 763 mmHg 77%
    09:00 +14°C° 0 mm 3 mps 763 mmHg 72%
    10:00 +17°C° 0 mm 3 mps 763 mmHg 65%
    11:00 +19°C° 0 mm 3 mps 762 mmHg 58%
    12:00 +21°C° 0 mm 3 mps 762 mmHg 51%
    13:00 +22°C° 0 mm 3 mps 762 mmHg 48%
    14:00 +23°C° 0 mm 2 mps 762 mmHg 45%
    15:00 +24°C° 0 mm 2 mps 761 mmHg 42%
    16:00 +23°C° 0 mm 2 mps 761 mmHg 45%
    17:00 +21°C° 0 mm 2 mps 762 mmHg 49%
    18:00 +20°C° 0 mm 1 mps 762 mmHg 52%
    19:00 +20°C° 0 mm 1 mps 762 mmHg 54%
    20:00 +18°C° 0 mm 2 mps 762 mmHg 55%
    21:00 +17°C° 0 mm 2 mps 762 mmHg 57%
    22:00 +17°C° 0 mm 2 mps 762 mmHg 59%
    23:00 +16°C° 0 mm 2 mps 762 mmHg 61%

    19 October, Saturday

    Time Temperature Precipitation Wind Pressure Humidity
    00:00 +16°C° 0 mm 2 mps 762 mmHg 62%
    01:00 +15°C° 0 mm 2 mps 762 mmHg 64%
    02:00 +15°C° 0 mm 2 mps 762 mmHg 65%
    03:00 +15°C° 0 mm 2 mps 762 mmHg 67%
    04:00 +14°C° 0 mm 2 mps 763 mmHg 68%
    05:00 +14°C° 0 mm 2 mps 763 mmHg 69%
    06:00 +14°C° 0 mm 2 mps 763 mmHg 69%
    07:00 +15°C° 0 mm 2 mps 763 mmHg 65%
    08:00 +16°C° 0 mm 3 mps 763 mmHg 62%
    09:00 +17°C° 0 mm 3 mps 764 mmHg 58%
    10:00 +18°C° 0 mm 3 mps 764 mmHg 51%
    11:00 +20°C° 0 mm 3 mps 764 mmHg 45%
    12:00 +22°C° 0 mm 3 mps 764 mmHg 39%
    13:00 +22°C° 0 mm 3 mps 764 mmHg 37%
    14:00 +24°C° 0 mm 3 mps 764 mmHg 36%
    15:00 +24°C° 0 mm 3 mps 763 mmHg 34%
    16:00 +22°C° 0 mm 3 mps 764 mmHg 38%
    17:00 +21°C° 0 mm 3 mps 764 mmHg 43%
    18:00 +19°C° 0 mm 3 mps 764 mmHg 47%
    19:00 +18°C° 0 mm 3 mps 764 mmHg 51%
    20:00 +18°C° 0 mm 3 mps 764 mmHg 54%
    21:00 +17°C° 0 mm 3 mps 765 mmHg 58%
    22:00 +16°C° 0 mm 3 mps 765 mmHg 60%
    23:00 +16°C° 0 mm 3 mps 765 mmHg 62%

    20 October, Sunday

    Time Temperature Precipitation Wind Pressure Humidity
    00:00 +14°C° 0 mm 3 mps 765 mmHg 64%
    01:00 +14°C° 0 mm 3 mps 765 mmHg 67%
    02:00 +13°C° 0 mm 3 mps 765 mmHg 70%
    03:00 +13°C° 0 mm 3 mps 765 mmHg 73%
    04:00 +13°C° 0 mm 3 mps 766 mmHg 74%
    05:00 +12°C° 0 mm 3 mps 766 mmHg 76%
    06:00 +12°C° 0 mm 3 mps 766 mmHg 78%
    07:00 +13°C° 0 mm 4 mps 766 mmHg 73%
    08:00 +14°C° 0 mm 4 mps 767 mmHg 69%
    09:00 +15°C° 0 mm 4 mps 767 mmHg 65%
    10:00 +17°C° 0 mm 4 mps 767 mmHg 59%
    11:00 +19°C° 0 mm 4 mps 767 mmHg 52%
    12:00 +21°C° 0 mm 4 mps 767 mmHg 45%
    13:00 +21°C° 0 mm 4 mps 767 mmHg 44%
    14:00 +22°C° 0 mm 4 mps 767 mmHg 43%
    15:00 +22°C° 0 mm 4 mps 767 mmHg 42%
    16:00 +21°C° 0 mm 4 mps 767 mmHg 46%
    17:00 +20°C° 0 mm 4 mps 767 mmHg 51%
    18:00 +18°C° 0 mm 3 mps 767 mmHg 56%
    19:00 +18°C° 0 mm 3 mps 767 mmHg 57%
    20:00 +17°C° 0 mm 4 mps 767 mmHg 59%
    21:00 +15°C° 0 mm 4 mps 768 mmHg 61%
    22:00 +15°C° 0 mm 4 mps 768 mmHg 63%
    23:00 +14°C° 0 mm 3 mps 768 mmHg 65%

    21 October, Monday

    Time Temperature Precipitation Wind Pressure Humidity
    00:00 +13°C° 0 mm 3 mps 768 mmHg 67%
    01:00 +13°C° 0 mm 3 mps 768 mmHg 67%
    02:00 +12°C° 0 mm 3 mps 768 mmHg 68%
    03:00 +12°C° 0 mm 3 mps 768 mmHg 69%
    04:00 +12°C° 0 mm 3 mps 768 mmHg 70%
    05:00 +11°C° 0 mm 3 mps 768 mmHg 71%
    06:00 +11°C° 0 mm 3 mps 768 mmHg 72%
    07:00 +12°C° 0 mm 4 mps 768 mmHg 68%
    08:00 +13°C° 0 mm 4 mps 768 mmHg 65%
    09:00 +14°C° 0 mm 4 mps 769 mmHg 62%
    10:00 +15°C° 0 mm 4 mps 769 mmHg 56%
    11:00 +18°C° 0 mm 4 mps 768 mmHg 50%
    12:00 +20°C° 0 mm 4 mps 768 mmHg 44%
    13:00 +20°C° 0 mm 4 mps 768 mmHg 43%
    14:00 +20°C° 0 mm 4 mps 768 mmHg 42%
    15:00 +21°C° 0 mm 4 mps 767 mmHg 41%
    16:00 +20°C° 0 mm 4 mps 767 mmHg 46%
    17:00 +18°C° 0 mm 3 mps 767 mmHg 50%
    18:00 +17°C° 0 mm 3 mps 767 mmHg 55%
    19:00 +16°C° 0 mm 3 mps 767 mmHg 57%
    20:00 +16°C° 0 mm 3 mps 767 mmHg 60%
    21:00 +14°C° 0 mm 3 mps 767 mmHg 63%
    22:00 +14°C° 0 mm 3 mps 767 mmHg 65%
    23:00 +14°C° 0 mm 2 mps 767 mmHg 67%
    Show more